Regional Weather Roundup
Issued by NWS

Home | Current Version | Previous Version | Text Only | Print | Product List | Glossary Off
Versions: 1 2 3 4 5 6 7 8 9 10 11 12 13 14 15 16 17 18 19 20 21 22 23 24 25 26 27 28 29 30 31 32 33 34 35 36 37 38 39 40 41 42 43 44 45 46 47 48 49 50

000
ASUS44 KOUN 271110
RWROK

WEATHER ROUNDUP FOR OKLAHOMA
NATIONAL WEATHER SERVICE NORMAN OK
600 AM CDT SAT AUG 27 2016

NOTE: "FAIR" INDICATES FEW OR NO CLOUDS BELOW 12,000 FEET WITH NO
      SIGNIFICANT WEATHER AND/OR OBSTRUCTIONS TO VISIBILITY.

OKZ001>007-009>012-014-015-017-271200-
NORTHWEST OKLAHOMA AND THE PANHANDLE

CITY           SKY/WX    TMP DP  RH WIND       PRES   REMARKS
GAGE           CLOUDY    67  64  90 CALM      30.03R
GUYMON         CLEAR     64  59  83 SW12      30.04S
ENID/WOODRING  CLEAR     70  68  94 CALM      29.99R
$$

OKZ016-021>023-033>039-044-045-271200-
SOUTHWEST OKLAHOMA

CITY           SKY/WX    TMP DP  RH WIND       PRES   REMARKS
LAWTON/REGL    CLEAR     70  68  93 CALM      30.00R
LAWTON/FT SILL CLEAR     72  71  96 S5        29.98S
FREDERICK      CLEAR     72  70  93 E6        29.97S
CLINTON        PTCLDY    71  68  90 SW6       30.04R
HOBART         CLEAR     72  69  90 S7        30.01R
ALTUS AFB      CLEAR     70  66  89 E6        29.99R
$$

OKZ018>020-024>031-271200-
CENTRAL OKLAHOMA

CITY           SKY/WX    TMP DP  RH WIND       PRES   REMARKS
OKLAHOMA CITY  MOCLDY    70  69  97 S6        30.02R
OKC/WILEY POST CLOUDY    72  69  90 S9        30.01R
OKC/TINKER AFB PTCLDY    70  68  92 S8        30.01R
STILLWATER     PTCLDY    70  68  93 SE6       30.01R
GUTHRIE        PTCLDY    71  69  93 S6        30.00R
$$

OKZ008-013-054>072-271200-
NORTHEAST OKLAHOMA

CITY           SKY/WX    TMP DP  RH WIND       PRES   REMARKS
TULSA          MOCLDY    74  73  97 S6        30.01R
TULSA/JONES    PTCLDY    73  72  96 CALM      30.03R
PONCA CITY     CLOUDY    70  66  87 SE3       30.00R
BARTLESVILLE   CLOUDY    67  66  97 SW3       30.02S FOG
MUSKOGEE       MOCLDY    70  69  97 S5        30.04R
$$

OKZ032-040>043-046>053-073>077-271200-
SOUTH CENTRAL/SOUTHEAST OKLAHOMA

CITY           SKY/WX    TMP DP  RH WIND       PRES   REMARKS
ARDMORE/DWNTWN PTCLDY    68  64  88 CALM      30.02R
MCALESTER      CLOUDY    71  68  90 CALM      30.04R
$$





USA.gov is the U.S. government's official web portal to all federal, state and local government web resources and services.